Flag for U.S.A. Weather past 2 weeks in Wake Island, Wake Island, U.S.A.

Now
75 °F

Mostly cloudy.


Feels Like: 75 °F
Forecast: 76 / 80 °F
Wind: 32 mph from East

Location: Wake Island Airfld

Current Time: Jan 29, 2015 at 8:59:50 AM

Latest Report: Jan 29, 2015 at 7:58 AM


Visibility: N/A

Pressure: 30.02 "Hg

Humidity: 83%

Dew point: 69 °F

Location of Wake IslandLocation

Historic Weather in Wake Island — Graph

°F

Wake Island temperature yesterday

Maximum temperature yesterday: 83 °F (at 1:58 PM)
Minimum temperature yesterday: 73 °F (at 4:58 AM)
Average temperature yesterday: 78 °F

Past Weeks' High & Low Weather Summary

 TemperatureHumidityPressure
High85 °F (Jan 19, 1:58 PM)94% (Jan 27, 1:04 AM)30.13 "Hg (Jan 27, 1:04 AM)
Low72 °F (Jan 27, 4:58 AM)49% (Jan 24, 1:58 PM)29.82 "Hg (Jan 19, 4:03 PM)
Average77 °F69%30.01 "Hg
* Reported Jan 14 7:58 AM — Jan 29 7:58 AM, Wake Island, Weather by CustomWeather, © 2014

Note: Actual official high and low records may vary slightly from our data, if they occured in-between our weather recording intervals... More about our weather records

Advertising

Wake Island weather history for previous 24 hours

 ConditionsComfort  
Time TempWeatherWind HumidityBarometerVisibility
7:58 AM
Jan 29
75 °FMostly cloudy.32 mph83%30.02 "HgN/A
6:58 AM75 °FOvercast.28 mph82%30.00 "HgN/A
5:58 AM73 °FRain. Fog.30 mph94%29.99 "Hg1 mi
5:04 AM73 °FPartly cloudy.26 mph94%29.96 "HgN/A
4:59 AM73 °FPartly cloudy.20 mph94%29.98 "HgN/A
3:58 AM73 °FOvercast.24 mph94%29.99 "HgN/A
2:59 AM75 °FLight rain. Mostly cloudy.23 mph83%29.98 "Hg6 mi
1:58 AM77 °FPartly cloudy.23 mph83%30.01 "HgN/A
1:00 AM75 °FMostly cloudy.24 mph89%29.98 "HgN/A
11:58 PM
Jan 28
77 °FPassing clouds.21 mph82%30.02 "Hg6 mi
11:02 PM77 °FLight rain. Passing clouds.17 mph83%30.01 "Hg6 mi
10:58 PM76 °FPassing clouds.17 mph81%30.00 "Hg6 mi
9:58 PM77 °FPartly cloudy.17 mph80%30.00 "Hg6 mi
8:58 PM77 °FPartly cloudy.14 mph80%30.01 "Hg6 mi
7:58 PM78 °FPassing clouds.17 mph76%29.99 "Hg6 mi
6:58 PM79 °FHaze.14 mph68%29.97 "Hg5 mi
5:58 PM80 °FSunny.16 mph68%29.96 "Hg5 mi
4:58 PM82 °FPassing clouds.18 mph62%29.96 "HgN/A
3:58 PM83 °FSunny.20 mph60%29.96 "HgN/A
2:58 PM83 °FSunny.20 mph61%29.95 "HgN/A
1:58 PM83 °FScattered clouds.20 mph60%29.96 "HgN/A
12:58 PM83 °FPassing clouds.23 mph62%29.98 "HgN/A
11:58 AM82 °FSunny.18 mph64%30.01 "HgN/A
10:58 AM81 °FScattered clouds.17 mph70%30.03 "HgN/A
8:58 AM78 °FScattered clouds.18 mph78%30.00 "HgN/A
Weather by CustomWeather, © 2014

See weather overviewHow to use our weather pages